TUI25A LDPL-EDDN

Flight info

Callsign TUI25A
Flight time 1h 10m
Altitude 36000
Route GIRDA DCT URAVA DCT MORED DCT SIMBA Y700 NENUM T161 AKINI
Aircraft B738/M-SDE2E3FGHIRWXY/LB1

Departure

Time 2026-04-20 18:54
Airport Pula Airport (LDPL)

Arrival

Time 2026-04-20 20:05
Airport Nuremberg Airport (EDDN)
Time Latitude Longitude Altitude Speed Heading
2026-04-20 18:27 44.89712 13.92515 136 ft 0 kts 46°
2026-04-20 18:43 44.89708 13.92507 218 ft 4 kts 56°
2026-04-20 18:43 44.89692 13.92478 222 ft 4 kts 38°
2026-04-20 18:44 44.89669 13.92459 219 ft 4 kts 13°
2026-04-20 18:44 44.89651 13.92456 218 ft 1 kts 357°
2026-04-20 18:44 44.89648 13.92456 218 ft 0 kts 357°
2026-04-20 18:46 44.89649 13.92456 218 ft 0 kts 357°
2026-04-20 18:46 44.89655 13.92454 218 ft 4 kts 346°
2026-04-20 18:46 44.89673 13.92420 222 ft 9 kts 273°
2026-04-20 18:47 44.89632 13.92318 222 ft 9 kts 238°
2026-04-20 18:47 44.89602 13.92278 218 ft 9 kts 217°
2026-04-20 18:47 44.89577 13.92205 218 ft 8 kts 263°
2026-04-20 18:47 44.89573 13.92123 225 ft 9 kts 267°
2026-04-20 18:48 44.89572 13.92022 219 ft 12 kts 270°
2026-04-20 18:48 44.89568 13.91885 213 ft 17 kts 267°
2026-04-20 18:48 44.89562 13.91686 203 ft 24 kts 269°
2026-04-20 18:48 44.89556 13.91430 195 ft 27 kts 269°
2026-04-20 18:49 44.89551 13.91164 190 ft 26 kts 268°
2026-04-20 18:49 44.89546 13.90914 183 ft 25 kts 268°
2026-04-20 18:49 44.89541 13.90681 183 ft 23 kts 262°
2026-04-20 18:49 44.89458 13.90497 178 ft 20 kts 229°
2026-04-20 18:50 44.89429 13.90451 178 ft 0 kts 229°
2026-04-20 18:52 44.89429 13.90450 178 ft 0 kts 229°
2026-04-20 18:52 44.89401 13.90409 177 ft 12 kts 218°
2026-04-20 18:53 44.89329 13.90394 177 ft 9 kts 136°
2026-04-20 18:53 44.89317 13.90471 177 ft 0 kts 89°
2026-04-20 18:53 44.89318 13.90568 178 ft 37 kts 89°
2026-04-20 18:53 44.89332 13.91268 202 ft 102 kts 88°
2026-04-20 18:54 44.89352 13.92511 216 ft 153 kts 91°
2026-04-20 18:54 44.89352 13.94096 720 ft 161 kts 88°
2026-04-20 18:54 44.89416 13.95716 1438 ft 165 kts 91°
2026-04-20 18:54 44.89453 13.97379 2088 ft 176 kts 91°
2026-04-20 18:55 44.89503 13.99207 2448 ft 202 kts 90°
2026-04-20 18:55 44.89567 14.01281 2746 ft 222 kts 86°
2026-04-20 18:55 44.90223 14.03360 2982 ft 246 kts 45°
2026-04-20 18:55 44.91754 14.04486 3515 ft 257 kts
2026-04-20 18:56 44.93492 14.04222 4375 ft 250 kts 341°
2026-04-20 18:56 44.95233 14.03990 4670 ft 260 kts 11°
2026-04-20 18:56 44.96785 14.05251 5051 ft 259 kts 42°
2026-04-20 18:56 44.98170 14.06896 5797 ft 261 kts 34°
2026-04-20 18:57 44.99682 14.08322 6554 ft 262 kts 29°
2026-04-20 18:57 45.01248 14.09631 6940 ft 262 kts 27°
2026-04-20 18:57 45.02856 14.10881 7061 ft 266 kts 21°
2026-04-20 18:57 45.04649 14.11335 7104 ft 266 kts 354°
2026-04-20 18:58 45.06548 14.11201 7571 ft 278 kts 354°
2026-04-20 18:58 45.08484 14.11079 8375 ft 278 kts 353°
2026-04-20 18:58 45.10419 14.10965 9179 ft 280 kts 354°
2026-04-20 18:58 45.12382 14.10852 9929 ft 284 kts 354°
2026-04-20 18:59 45.14346 14.10742 10439 ft 294 kts 353°
2026-04-20 18:59 45.16476 14.10619 10598 ft 317 kts 354°
2026-04-20 18:59 45.18759 14.10621 10753 ft 339 kts 359°
2026-04-20 18:59 45.21183 14.10830 10988 ft 356 kts
2026-04-20 19:00 45.23686 14.11102 11522 ft 363 kts
2026-04-20 19:00 45.26200 14.11377 12254 ft 363 kts
2026-04-20 19:00 45.28729 14.11639 12944 ft 366 kts
2026-04-20 19:00 45.31284 14.11889 13606 ft 370 kts 360°
2026-04-20 19:01 45.33870 14.12133 14260 ft 373 kts 359°
2026-04-20 19:01 45.36465 14.12374 14989 ft 374 kts 359°
2026-04-20 19:01 45.39071 14.12615 15676 ft 376 kts 359°
2026-04-20 19:01 45.41692 14.12854 16369 ft 379 kts 359°
2026-04-20 19:02 45.44333 14.13098 17022 ft 382 kts 358°
2026-04-20 19:02 45.46985 14.13230 17666 ft 380 kts 350°
2026-04-20 19:02 45.49505 14.12342 18318 ft 371 kts 333°
2026-04-20 19:02 45.51883 14.10879 18856 ft 373 kts 331°
2026-04-20 19:03 45.54255 14.09352 19396 ft 375 kts 331°
2026-04-20 19:03 45.56639 14.07803 19935 ft 378 kts 330°
2026-04-20 19:03 45.59038 14.06251 20454 ft 380 kts 331°
2026-04-20 19:03 45.61457 14.04696 21005 ft 382 kts 331°
2026-04-20 19:04 45.63893 14.03140 21561 ft 384 kts 331°
2026-04-20 19:04 45.66341 14.01581 22078 ft 387 kts 331°
2026-04-20 19:04 45.68807 14.00014 22555 ft 390 kts 331°
2026-04-20 19:04 45.71299 13.98432 23073 ft 392 kts 331°
2026-04-20 19:05 45.73803 13.96842 23540 ft 395 kts 331°
2026-04-20 19:05 45.76287 13.95263 23940 ft 397 kts 331°
2026-04-20 19:05 45.78814 13.93657 24368 ft 398 kts 331°
2026-04-20 19:05 45.81352 13.92043 24800 ft 398 kts 331°
2026-04-20 19:06 45.83885 13.90430 25188 ft 399 kts 330°
2026-04-20 19:06 45.86428 13.88809 25553 ft 401 kts 330°
2026-04-20 19:06 45.88987 13.87174 25903 ft 404 kts 330°
2026-04-20 19:06 45.91562 13.85527 26240 ft 406 kts 330°
2026-04-20 19:07 45.94141 13.83876 26604 ft 407 kts 330°
2026-04-20 19:07 45.96734 13.82215 26979 ft 408 kts 330°
2026-04-20 19:07 45.99333 13.80548 27320 ft 410 kts 330°
2026-04-20 19:07 46.01944 13.78871 27649 ft 412 kts 330°
2026-04-20 19:08 46.04564 13.77188 28001 ft 412 kts 330°
2026-04-20 19:08 46.09807 13.73816 28783 ft 412 kts 330°
2026-04-20 19:08 46.12415 13.72137 29251 ft 410 kts 330°
2026-04-20 19:09 46.15020 13.70497 29701 ft 408 kts 331°
2026-04-20 19:09 46.17595 13.68856 30241 ft 402 kts 330°
2026-04-20 19:09 46.20131 13.67197 30608 ft 399 kts 329°
2026-04-20 19:09 46.22670 13.65532 30774 ft 403 kts 330°
2026-04-20 19:10 46.25243 13.63848 30923 ft 406 kts 330°
2026-04-20 19:10 46.27814 13.62175 31381 ft 403 kts 330°
2026-04-20 19:10 46.30357 13.60524 31771 ft 400 kts 330°
2026-04-20 19:10 46.32902 13.58869 32089 ft 400 kts 330°
2026-04-20 19:11 46.35441 13.57216 32374 ft 401 kts 330°
2026-04-20 19:11 46.37994 13.55554 32693 ft 401 kts 329°
2026-04-20 19:11 46.40482 13.53943 33374 ft 393 kts 330°
2026-04-20 19:11 46.43065 13.52599 33721 ft 399 kts 338°
2026-04-20 19:12 46.45783 13.51650 33873 ft 403 kts 339°
2026-04-20 19:12 46.48514 13.50735 34215 ft 401 kts 339°
2026-04-20 19:12 46.51232 13.49826 34434 ft 402 kts 339°
2026-04-20 19:12 46.53952 13.48871 34560 ft 403 kts 339°
2026-04-20 19:13 46.56679 13.47934 34785 ft 404 kts 340°
2026-04-20 19:13 46.59423 13.47004 35010 ft 404 kts 339°
2026-04-20 19:13 46.62156 13.46075 35231 ft 403 kts 340°
2026-04-20 19:14 46.67673 13.44174 35367 ft 411 kts 340°
2026-04-20 19:14 46.70458 13.43209 35502 ft 412 kts 339°
2026-04-20 19:14 46.73246 13.42242 35600 ft 411 kts 340°
2026-04-20 19:14 46.76022 13.41272 35747 ft 409 kts 340°
2026-04-20 19:15 46.78783 13.40310 35854 ft 407 kts 340°
2026-04-20 19:15 46.81538 13.39349 35967 ft 408 kts 340°
2026-04-20 19:15 46.84309 13.38378 35962 ft 412 kts 340°
2026-04-20 19:16 46.89864 13.36422 35979 ft 415 kts 340°
2026-04-20 19:16 46.95500 13.34536 35999 ft 416 kts 341°
2026-04-20 19:17 47.01122 13.32557 35987 ft 415 kts 339°
2026-04-20 19:17 47.06732 13.30527 36007 ft 416 kts 339°
2026-04-20 19:18 47.12352 13.28531 36029 ft 414 kts 340°
2026-04-20 19:18 47.17951 13.26536 36019 ft 414 kts 339°
2026-04-20 19:19 47.23556 13.24606 36040 ft 415 kts 342°
2026-04-20 19:19 47.29271 13.23258 36061 ft 417 kts 345°
2026-04-20 19:20 47.35013 13.22047 36053 ft 416 kts 345°
2026-04-20 19:20 47.40733 13.20789 36063 ft 414 kts 344°
2026-04-20 19:21 47.46411 13.19500 36098 ft 411 kts 344°
2026-04-20 19:21 47.52115 13.18182 36098 ft 419 kts 344°
2026-04-20 19:22 47.57913 13.16837 36074 ft 424 kts 344°
2026-04-20 19:22 47.63749 13.15488 36083 ft 425 kts 344°
2026-04-20 19:23 47.69590 13.14136 36113 ft 425 kts 345°
2026-04-20 19:23 47.75446 13.12793 35647 ft 426 kts 345°
2026-04-20 19:23 47.78358 13.12172 35312 ft 419 kts 344°
2026-04-20 19:24 47.81219 13.11505 34932 ft 412 kts 343°
2026-04-20 19:24 47.84036 13.10828 34610 ft 409 kts 343°
2026-04-20 19:24 47.86830 13.10155 34334 ft 405 kts 343°
2026-04-20 19:24 47.89597 13.09494 34100 ft 400 kts 343°
2026-04-20 19:25 47.92320 13.08845 33872 ft 405 kts 343°
2026-04-20 19:25 47.95123 13.08176 33637 ft 412 kts 343°
2026-04-20 19:25 47.97980 13.07498 33360 ft 416 kts 343°
2026-04-20 19:25 48.00833 13.06829 33090 ft 413 kts 343°
2026-04-20 19:26 48.03583 13.06188 32839 ft 411 kts 343°
2026-04-20 19:26 48.06297 13.05552 32572 ft 408 kts 343°
2026-04-20 19:26 48.09095 13.04895 32322 ft 406 kts 342°
2026-04-20 19:26 48.11877 13.04238 32060 ft 404 kts 342°
2026-04-20 19:27 48.14653 13.03581 31808 ft 403 kts 342°
2026-04-20 19:27 48.17428 13.02922 31554 ft 403 kts 342°
2026-04-20 19:27 48.20204 13.02264 31304 ft 403 kts 342°
2026-04-20 19:27 48.22980 13.01605 31145 ft 405 kts 342°
2026-04-20 19:28 48.25771 13.00968 31106 ft 407 kts 342°
2026-04-20 19:28 48.31434 12.99733 30630 ft 413 kts 342°
2026-04-20 19:28 48.34249 12.99131 30278 ft 403 kts 342°
2026-04-20 19:29 48.37000 12.98539 29871 ft 395 kts 342°
2026-04-20 19:29 48.39695 12.97949 29429 ft 389 kts 342°
2026-04-20 19:29 48.42362 12.97359 29012 ft 384 kts 342°
2026-04-20 19:29 48.44997 12.96774 28597 ft 382 kts 342°
2026-04-20 19:30 48.47619 12.96193 28300 ft 379 kts 342°
2026-04-20 19:30 48.50163 12.95395 28098 ft 367 kts 331°
2026-04-20 19:30 48.52347 12.93563 28094 ft 356 kts 317°
2026-04-20 19:31 48.55627 12.88107 28075 ft 352 kts 297°
2026-04-20 19:31 48.57521 12.81342 28070 ft 355 kts 291°
2026-04-20 19:32 48.59268 12.74332 28075 ft 358 kts 291°
2026-04-20 19:32 48.61058 12.67242 27703 ft 370 kts 291°
2026-04-20 19:32 48.61986 12.63599 27320 ft 372 kts 291°
2026-04-20 19:33 48.62919 12.59952 26922 ft 371 kts 291°
2026-04-20 19:33 48.63856 12.56295 26538 ft 373 kts 291°
2026-04-20 19:33 48.64792 12.52638 26156 ft 375 kts 291°
2026-04-20 19:33 48.65734 12.48953 25781 ft 376 kts 291°
2026-04-20 19:34 48.66666 12.45304 25404 ft 377 kts 291°
2026-04-20 19:34 48.67605 12.41620 24959 ft 373 kts 291°
2026-04-20 19:34 48.68232 12.39157 24666 ft 369 kts 291°
2026-04-20 19:34 48.69442 12.34401 24088 ft 363 kts 291°
2026-04-20 19:35 48.70344 12.30846 23669 ft 359 kts 290°
2026-04-20 19:35 48.70945 12.28471 23316 ft 356 kts 290°
2026-04-20 19:35 48.71829 12.24982 22804 ft 353 kts 290°
2026-04-20 19:35 48.72701 12.21531 22306 ft 350 kts 290°
2026-04-20 19:36 48.73568 12.18096 21819 ft 347 kts 290°
2026-04-20 19:36 48.74421 12.14749 21347 ft 344 kts 292°
2026-04-20 19:36 48.75513 12.11533 20867 ft 342 kts 300°
2026-04-20 19:36 48.76907 12.08612 20402 ft 341 kts 306°
2026-04-20 19:37 48.78377 12.05807 19944 ft 340 kts 307°
2026-04-20 19:37 48.79853 12.03014 19494 ft 338 kts 307°
2026-04-20 19:37 48.81316 12.00242 19045 ft 336 kts 307°
2026-04-20 19:37 48.82769 11.97476 18608 ft 335 kts 307°
2026-04-20 19:38 48.84217 11.94708 18148 ft 333 kts 307°
2026-04-20 19:38 48.85656 11.91949 17647 ft 332 kts 306°
2026-04-20 19:38 48.87082 11.89207 17155 ft 330 kts 307°
2026-04-20 19:38 48.88505 11.86467 16677 ft 329 kts 306°
2026-04-20 19:39 48.89918 11.83740 16201 ft 328 kts 306°
2026-04-20 19:39 48.91328 11.81017 15731 ft 327 kts 306°
2026-04-20 19:39 48.92729 11.78305 15286 ft 326 kts 306°
2026-04-20 19:39 48.94130 11.75594 14837 ft 324 kts 306°
2026-04-20 19:40 48.95520 11.72899 14401 ft 324 kts 306°
2026-04-20 19:40 48.96887 11.70246 13959 ft 323 kts 306°
2026-04-20 19:40 48.98269 11.67559 13465 ft 321 kts 306°
2026-04-20 19:40 48.99644 11.64885 12983 ft 320 kts 306°
2026-04-20 19:41 49.01007 11.62233 12514 ft 314 kts 307°
2026-04-20 19:41 49.02325 11.59669 12165 ft 301 kts 307°
2026-04-20 19:41 49.03594 11.57194 11811 ft 291 kts 307°
2026-04-20 19:41 49.04818 11.54807 11471 ft 281 kts 307°
2026-04-20 19:42 49.06012 11.52473 11139 ft 279 kts 307°
2026-04-20 19:42 49.07210 11.50129 10763 ft 279 kts 307°
2026-04-20 19:42 49.08392 11.47814 10376 ft 275 kts 307°
2026-04-20 19:42 49.09559 11.45527 10005 ft 271 kts 307°
2026-04-20 19:43 49.10326 11.44023 9743 ft 272 kts 307°
2026-04-20 19:43 49.11877 11.40981 9324 ft 269 kts 307°
2026-04-20 19:43 49.13016 11.38745 9051 ft 266 kts 307°
2026-04-20 19:43 49.14143 11.36530 8785 ft 263 kts 307°
2026-04-20 19:44 49.15257 11.34339 8529 ft 260 kts 307°
2026-04-20 19:44 49.16366 11.32155 8262 ft 258 kts 307°
2026-04-20 19:44 49.17454 11.30012 8126 ft 252 kts 307°
2026-04-20 19:44 49.18515 11.27921 8097 ft 247 kts 307°
2026-04-20 19:45 49.19563 11.25852 8094 ft 246 kts 307°
2026-04-20 19:45 49.20615 11.23773 8112 ft 249 kts 307°
2026-04-20 19:45 49.21705 11.21694 8100 ft 251 kts 313°
2026-04-20 19:45 49.22995 11.19894 8110 ft 253 kts 319°
2026-04-20 19:46 49.24326 11.18176 8103 ft 253 kts 318°
2026-04-20 19:46 49.25665 11.16424 8108 ft 254 kts 318°
2026-04-20 19:46 49.26997 11.14657 8090 ft 253 kts 318°
2026-04-20 19:46 49.28316 11.12886 8093 ft 251 kts 316°
2026-04-20 19:47 49.29282 11.10715 8108 ft 248 kts 291°
2026-04-20 19:47 49.29702 11.08174 8101 ft 243 kts 281°
2026-04-20 19:47 49.29935 11.05666 8099 ft 233 kts 279°
2026-04-20 19:47 49.30150 11.03236 8115 ft 229 kts 279°
2026-04-20 19:48 49.30371 11.00832 8109 ft 227 kts 279°
2026-04-20 19:48 49.30599 10.98429 8117 ft 229 kts 280°
2026-04-20 19:48 49.30832 10.96008 8126 ft 229 kts 280°
2026-04-20 19:48 49.31067 10.93581 8128 ft 231 kts 279°
2026-04-20 19:49 49.31516 10.91238 8089 ft 231 kts 305°
2026-04-20 19:49 49.32750 10.89687 7812 ft 241 kts 336°
2026-04-20 19:49 49.34435 10.89261 7493 ft 247 kts
2026-04-20 19:49 49.36064 10.90062 7172 ft 256 kts 30°
2026-04-20 19:50 49.37237 10.91853 6910 ft 262 kts 57°
2026-04-20 19:50 49.37835 10.94490 6662 ft 263 kts 80°
2026-04-20 19:50 49.38031 10.97273 6413 ft 262 kts 83°
2026-04-20 19:50 49.38197 11.00051 6143 ft 262 kts 82°
2026-04-20 19:51 49.38375 11.02804 6011 ft 255 kts 82°
2026-04-20 19:51 49.38559 11.05468 5980 ft 249 kts 81°
2026-04-20 19:51 49.38748 11.08103 5971 ft 246 kts 81°
2026-04-20 19:51 49.38937 11.10706 5985 ft 245 kts 81°
2026-04-20 19:52 49.39119 11.13185 5979 ft 247 kts 82°
2026-04-20 19:52 49.39075 11.15836 5974 ft 252 kts 99°
2026-04-20 19:52 49.38755 11.18490 5976 ft 254 kts 98°
2026-04-20 19:52 49.38462 11.21162 5982 ft 254 kts 98°
2026-04-20 19:53 49.38182 11.23843 5977 ft 254 kts 97°
2026-04-20 19:53 49.37911 11.26507 5959 ft 252 kts 97°
2026-04-20 19:53 49.37643 11.29153 5967 ft 250 kts 97°
2026-04-20 19:53 49.37377 11.31786 5965 ft 249 kts 97°
2026-04-20 19:54 49.37113 11.34418 5977 ft 251 kts 98°
2026-04-20 19:54 49.36844 11.37074 5978 ft 252 kts 97°
2026-04-20 19:54 49.36574 11.39730 5974 ft 252 kts 97°
2026-04-20 19:54 49.36302 11.42397 5973 ft 253 kts 97°
2026-04-20 19:55 49.36033 11.45039 5966 ft 254 kts 97°
2026-04-20 19:55 49.35760 11.47711 5975 ft 254 kts 97°
2026-04-20 19:55 49.35484 11.50396 5971 ft 256 kts 98°
2026-04-20 19:55 49.35207 11.53097 5963 ft 256 kts 98°
2026-04-20 19:56 49.35033 11.55809 5950 ft 254 kts 81°
2026-04-20 19:56 49.35607 11.58283 5964 ft 243 kts 50°
2026-04-20 19:56 49.36847 11.59860 5972 ft 227 kts 19°
2026-04-20 19:56 49.38309 11.60638 5942 ft 218 kts
2026-04-20 19:57 49.39745 11.60324 5909 ft 209 kts 330°
2026-04-20 19:57 49.40916 11.58961 5623 ft 213 kts 316°
2026-04-20 19:57 49.41983 11.57403 5345 ft 210 kts 314°
2026-04-20 19:57 49.43024 11.55851 5051 ft 207 kts 314°
2026-04-20 19:58 49.44042 11.54323 4760 ft 203 kts 314°
2026-04-20 19:58 49.45019 11.52805 4489 ft 196 kts 307°
2026-04-20 19:58 49.45526 11.50899 4231 ft 194 kts 282°
2026-04-20 19:58 49.45809 11.48868 4016 ft 195 kts 284°
2026-04-20 19:59 49.46083 11.46780 3995 ft 202 kts 281°
2026-04-20 19:59 49.46313 11.44663 3973 ft 199 kts 280°
2026-04-20 19:59 49.46520 11.42565 3962 ft 199 kts 279°
2026-04-20 19:59 49.46723 11.40444 3988 ft 201 kts 280°
2026-04-20 20:00 49.46925 11.38317 3963 ft 200 kts 280°
2026-04-20 20:00 49.47124 11.36220 3964 ft 197 kts 280°
2026-04-20 20:00 49.47320 11.34159 3960 ft 193 kts 280°
2026-04-20 20:00 49.47508 11.32190 3963 ft 182 kts 280°
2026-04-20 20:01 49.47687 11.30317 3815 ft 172 kts 280°
2026-04-20 20:01 49.47860 11.28516 3585 ft 169 kts 280°
2026-04-20 20:01 49.48029 11.26749 3363 ft 164 kts 280°
2026-04-20 20:01 49.48192 11.25056 3144 ft 156 kts 281°
2026-04-20 20:02 49.48348 11.23439 2948 ft 144 kts 282°
2026-04-20 20:02 49.48491 11.21962 2764 ft 139 kts 281°
2026-04-20 20:02 49.48635 11.20486 2565 ft 139 kts 281°
2026-04-20 20:02 49.48774 11.19021 2342 ft 135 kts 281°
2026-04-20 20:03 49.48909 11.17641 2155 ft 127 kts 282°
2026-04-20 20:03 49.49039 11.16312 1989 ft 127 kts 282°
2026-04-20 20:03 49.49173 11.14941 1804 ft 133 kts 280°
2026-04-20 20:03 49.49312 11.13506 1614 ft 136 kts 281°
2026-04-20 20:04 49.49457 11.12088 1432 ft 136 kts 283°
2026-04-20 20:04 49.49598 11.10669 1245 ft 130 kts 283°
2026-04-20 20:04 49.49711 11.09366 1078 ft 120 kts 283°
2026-04-20 20:04 49.49827 11.08252 1032 ft 79 kts 278°
2026-04-20 20:05 49.49888 11.07626 1024 ft 56 kts 278°
2026-04-20 20:05 49.49933 11.07165 1023 ft 15 kts 277°
2026-04-20 20:05 49.49907 11.07024 1022 ft 15 kts 208°
2026-04-20 20:05 49.49826 11.07044 1020 ft 0 kts 160°
2026-04-20 20:07 49.49811 11.07053 1020 ft 7 kts 159°
2026-04-20 20:07 49.49764 11.07087 1020 ft 7 kts 142°
2026-04-20 20:07 49.49742 11.07157 1021 ft 7 kts 104°
2026-04-20 20:07 49.49733 11.07233 1021 ft 8 kts 99°
2026-04-20 20:08 49.49722 11.07343 1022 ft 14 kts 98°
2026-04-20 20:08 49.49706 11.07523 1023 ft 18 kts 98°
2026-04-20 20:08 49.49690 11.07691 1022 ft 9 kts 98°
2026-04-20 20:08 49.49683 11.07732 1022 ft 0 kts 114°
2026-04-20 20:09 49.49659 11.07763 1026 ft 7 kts 161°
2026-04-20 20:09 49.49609 11.07751 1026 ft 7 kts 200°
2026-04-20 20:10 49.49561 11.07733 1024 ft 7 kts 189°
2026-04-20 20:10 49.49530 11.07725 1021 ft 2 kts 188°
2026-04-20 20:10 49.49523 11.07724 1021 ft 0 kts 189°